{"data":{"norad_id":55804,"epoch":"2026-09-20T00:22:24.881664Z","epoch_age_seconds":63690,"freshness":"FRESH","line1":"1 55804U 23029J   26263.01556576  .00000247  00000+0  63143-3 0  9994","line2":"2 55804  87.8883 270.8181 0002571  89.0877 271.0547 13.14502062171871","mean_motion":13.14502062,"eccentricity":0.0002571,"inclination_deg":87.8883,"raan_deg":270.8181,"arg_perigee_deg":89.0877,"mean_anomaly_deg":271.0547,"bstar":0.00063143,"rev_number":17187,"period_min":109.54718456729,"perigee_km":1203.8433647504,"apogee_km":1207.7430216558,"semimajor_km":7583.9301932031,"source":"CELESTRAK","updated_at":"2026-09-20T09:00:44.760422Z"}}